Location: Newark
(28.4500°N, 16.2500°W)
Time: 04:48:24
(UTC+00:00)

JUGNU - Pass Details

Date: 28 October 2019
Orbit: 836 x 864 km, 20.0° (Epoch: 16 November)

Event Time Altitude Azimuth Distance (km) Brightness Sun altitude
Rises 21:27:50 0° 254° (WSW) 3,389 ? -41.0°
Reaches altitude 10° 21:30:34 10° 246° (WSW) 2,459 ? -41.6°
Enters shadow 21:31:35 15° 241° (WSW) 2,136 ? -41.9°
